TimeHST,TemperatureF,Dew PointF,Humidity,Sea Level PressureIn,VisibilityMPH,Wind Direction,Wind SpeedMPH,Gust SpeedMPH,PrecipitationIn,Events,Conditions,WindDirDegrees,DateUTC
12:09 AM,69.8,60.8,73,30.11,10.0,NNE,21.9,28.8,0.00,,Overcast,30,2012-03-08 10:09:00
12:38 AM,69.8,60.8,73,30.10,10.0,NNE,20.7,-,0.00,,Overcast,20,2012-03-08 10:38:00
12:53 AM,70.0,60.1,71,30.09,10.0,NNE,20.7,28.8,0.00,,Overcast,30,2012-03-08 10:53:00
1:53 AM,70.0,60.1,71,30.09,10.0,NE,19.6,-,N/A,,Overcast,40,2012-03-08 11:53:00
2:13 AM,69.8,60.8,73,30.09,10.0,NNE,20.7,26.5,N/A,,Overcast,30,2012-03-08 12:13:00
2:53 AM,69.1,59.0,70,30.07,10.0,NNE,21.9,-,N/A,,Mostly Cloudy,30,2012-03-08 12:53:00
3:53 AM,69.1,60.1,73,30.06,10.0,NNE,21.9,-,N/A,,Overcast,30,2012-03-08 13:53:00
4:53 AM,69.1,59.0,70,30.07,10.0,NNE,19.6,-,N/A,,Mostly Cloudy,30,2012-03-08 14:53:00
5:53 AM,69.1,59.0,70,30.08,10.0,NNE,20.7,27.6,N/A,,Overcast,20,2012-03-08 15:53:00
6:53 AM,69.1,55.9,63,30.10,10.0,NNE,17.3,-,N/A,,Overcast,30,2012-03-08 16:53:00
7:53 AM,71.1,55.9,59,30.12,10.0,NNE,23.0,-,N/A,,Overcast,20,2012-03-08 17:53:00
8:53 AM,73.0,55.0,53,30.12,10.0,NNE,26.5,32.2,N/A,,Scattered Clouds,30,2012-03-08 18:53:00
9:53 AM,73.0,57.9,59,30.13,10.0,NNE,25.3,31.1,N/A,,Mostly Cloudy,20,2012-03-08 19:53:00
10:53 AM,73.0,55.9,55,30.14,10.0,NNE,21.9,31.1,N/A,,Overcast,30,2012-03-08 20:53:00
11:53 AM,75.0,60.1,60,30.13,10.0,NE,27.6,34.5,N/A,,Mostly Cloudy,40,2012-03-08 21:53:00
12:53 PM,75.9,59.0,56,30.11,10.0,NNE,25.3,32.2,N/A,,Scattered Clouds,30,2012-03-08 22:53:00
1:53 PM,75.0,59.0,57,30.09,10.0,NE,24.2,33.4,N/A,,Partly Cloudy,40,2012-03-08 23:53:00
2:53 PM,73.9,57.0,55,30.07,10.0,NE,25.3,33.4,N/A,,Scattered Clouds,40,2012-03-09 00:53:00
3:53 PM,72.0,59.0,64,30.07,10.0,NNE,23.0,31.1,0.00,,Mostly Cloudy,30,2012-03-09 01:53:00
4:53 PM,73.9,57.9,57,30.06,10.0,NNE,25.3,31.1,N/A,,Scattered Clouds,30,2012-03-09 02:53:00
5:53 PM,71.1,57.9,63,30.07,10.0,NNE,25.3,-,N/A,,Clear,30,2012-03-09 03:53:00
6:53 PM,71.1,57.9,63,30.09,10.0,NNE,21.9,31.1,N/A,,Mostly Cloudy,30,2012-03-09 04:53:00
7:53 PM,71.1,60.1,68,30.09,10.0,NE,25.3,29.9,N/A,,Mostly Cloudy,40,2012-03-09 05:53:00
8:53 PM,71.1,60.1,68,30.09,10.0,NE,21.9,29.9,N/A,,Overcast,50,2012-03-09 06:53:00
9:53 PM,71.1,61.0,70,30.09,10.0,ENE,23.0,32.2,N/A,,Overcast,60,2012-03-09 07:53:00
10:53 PM,71.1,61.0,70,30.09,10.0,NE,23.0,28.8,N/A,,Overcast,50,2012-03-09 08:53:00
11:53 PM,71.1,61.0,70,30.08,10.0,East,23.0,29.9,0.00,,Overcast,80,2012-03-09 09:53:00